Weather History for KICT - March, 2013

Change the Weather History Date:

Saturday, March 2, 2013

  Actual Average Record
Temperature  
Mean Temperature 27 °F 42 °F  
Max Temperature 36 °F 53 °F 83 °F (1901)
Min Temperature 18 °F 31 °F 1 °F (1922)
Degree Days  
Heating Degree Days 38 23  
Month to date heating degree days 75 46  
Since 1 July heating degree days 3346 3686  
Cooling Degree Days 0 0  
Month to date cooling degree days 0 0  
Year to date cooling degree days 0 0  
Moisture  
Dew Point 20 °F    
Average Humidity 74    
Maximum Humidity 92    
Minimum Humidity 56    
Precipitation  
Precipitation 0.00 in 0.06 in 1.19 in (1979)
Month to date precipitation 0.00 0.12  
Year to date precipitation 3.02 2.13  
Snow  
Snow 0.00 in 0.00 in 5.00 in (1912)
Month to date snowfall 0.0 0.1  
Since 1 July snowfall 24.5 12.5  
Snow Depth 4.00 in    
Sea Level Pressure  
Sea Level Pressure 30.33 in    
Wind  
Wind Speed 5 mph (SW)    
Max Wind Speed 9 mph    
Max Gust Speed 12 mph    
Visibility 9 miles    
Events      
T = Trace of Precipitation, MM = Missing Value Source: NWS Daily Summary

Daily Weather History Graph

Daily Weather History Graph

Search for Another Location

Airport or City:

Trip Planner

Search our weather history database for the weather conditions in past years. The results will help you decide how hot, cold, wet, or windy it might be!

Date:

Astronomy

Mar. 02, 2013 Rise Set
Actual Time 6:59 AM CST 6:24 PM CST
Civil Twilight 6:33 AM CST 6:51 PM CST
Nautical Twilight 6:02 AM CST 7:21 PM CST
Astronomical Twilight 5:32 AM CST 7:51 PM CST
Moon 11:58 PM CST (3/2) 9:35 AM CST (3/2)
Length of Visible Light 12h 17m
Length of Day
11h 25m
Waning Gibbous, 74% of the Moon is Illuminated
Mar 2
Waning Gibbous
Mar 4
Last Quarter
Mar 11
New
Mar 19
First Quarter
Mar 27
Full

Hourly Weather History & Observations

Time (CST) Temp. Windchill Dew Point Humidity Pressure Visibility Wind Dir Wind Speed Gust Speed Precip Events Conditions
12:53 AM 21.9 °F 12.5 °F 17.1 °F 82% 30.40 in 10.0 mi NW 8.1 mph - N/A   Clear
1:53 AM 21.0 °F 13.4 °F 16.0 °F 81% 30.39 in 10.0 mi NW 5.8 mph - N/A   Clear
2:53 AM 19.9 °F 10.1 °F 16.0 °F 85% 30.39 in 10.0 mi NNW 8.1 mph - N/A   Clear
3:53 AM 21.0 °F 11.4 °F 17.1 °F 85% 30.39 in 10.0 mi North 8.1 mph - N/A   Clear
4:53 AM 18.0 °F 8.7 °F 15.1 °F 88% 30.41 in 9.0 mi NW 6.9 mph - N/A   Clear
5:53 AM 19.0 °F 10.0 °F 15.1 °F 85% 30.41 in 9.0 mi NW 6.9 mph - N/A   Clear
6:53 AM 18.0 °F 12.7 °F 15.1 °F 88% 30.41 in 8.0 mi NNW 3.5 mph - N/A   Partly Cloudy
7:53 AM 19.0 °F 11.1 °F 16.0 °F 88% 30.42 in 6.0 mi NNW 5.8 mph - N/A   Partly Cloudy
8:53 AM 24.1 °F - 18.0 °F 77% 30.41 in 7.0 mi Calm Calm - N/A   Partly Cloudy
9:53 AM 28.0 °F 24.2 °F 19.0 °F 69% 30.40 in 7.0 mi NE 3.5 mph - N/A   Partly Cloudy
10:53 AM 30.9 °F - 19.9 °F 64% 30.39 in 8.0 mi Calm Calm - N/A   Partly Cloudy
11:53 AM 34.0 °F - 19.0 °F 54% 30.38 in 9.0 mi Calm Calm - N/A   Partly Cloudy
12:53 PM 33.1 °F 27.7 °F 21.9 °F 64% 30.36 in 8.0 mi SW 5.8 mph - N/A   Partly Cloudy
1:53 PM 35.1 °F 32.2 °F 21.0 °F 57% 30.33 in 8.0 mi South 3.5 mph - N/A   Partly Cloudy
2:53 PM 36.0 °F 31.1 °F 21.0 °F 55% 30.31 in 8.0 mi South 5.8 mph - N/A   Partly Cloudy
3:53 PM 36.0 °F 29.6 °F 24.1 °F 62% 30.29 in 8.0 mi South 8.1 mph - N/A   Scattered Clouds
4:53 PM 36.0 °F 30.3 °F 23.0 °F 59% 30.28 in 8.0 mi South 6.9 mph - N/A   Scattered Clouds
5:53 PM 35.1 °F 30.1 °F 21.0 °F 57% 30.27 in 10.0 mi SSW 5.8 mph - N/A   Mostly Cloudy
6:53 PM 33.8 °F 29.6 °F 23.0 °F 65% 30.21 in 10.0 mi SE 4.6 mph - N/A   Scattered Clouds
7:53 PM 33.1 °F - 21.9 °F 64% 30.25 in 10.0 mi Calm Calm - N/A   Partly Cloudy
8:53 PM 30.9 °F 27.5 °F 21.9 °F 69% 30.23 in 10.0 mi South 3.5 mph - N/A   Partly Cloudy
9:53 PM 32.0 °F 26.4 °F 23.0 °F 69% 30.21 in 9.0 mi SSE 5.8 mph - N/A   Clear
10:53 PM 32.0 °F 25.6 °F 25.0 °F 75% 30.19 in 10.0 mi SSE 6.9 mph - N/A   Partly Cloudy
11:53 PM 28.9 °F 25.2 °F 24.1 °F 82% 30.18 in 10.0 mi South 3.5 mph - N/A   Clear